sat.trackr.live / text

‹ back to catalog

STARLINK-4652

NORAD 53736 · 2022-107AN

PAYLOAD ACTIVE UNKNOWN

§ Identity

Operator
Country
US
Launch date
2022-09-05
Launch site
AFETR
Launch vehicle
Mass (kg)
RCS (m²)

Purposes: comms

External: N2YO · Heavens-Above · Gunter

§ Orbital elements

Epoch: 2026-09-20T22:14:28.881888Z

Period
93.79 min
Inclination
53.1596°
Eccentricity
0.0000906
Mean motion
15.35404725 rev/d
Perigee alt
459.1 km
Apogee alt
460.3 km
Semi-major
6,837.9 km
B*
-1.3698e-4
RAAN
81.8532°
Arg perigee
99.4666°
Mean anomaly
260.6440°
Rev number
22,427

§ Raw data

STARLINK-46521 53736U 22107AN  26263.92672317 -.00005156  00000+0 -13698-3 0  99902 53736  53.1596  81.8532 0000906  99.4666 260.6440 15.35404725224272

JSON: /api/v1/satellites/53736 · /tle

For live sub-satellite position, see the globe view (requires WebGL).

§ Visibility from observer

Set your observer location to see the next 7 days of passes ≥ 10°. The values pass through the URL so the page stays shareable.

No JS? Fill the form by hand. The geolocation button needs JavaScript.